Weather Roundup
Issued by NWS

Home | Current Version | Previous Version | Graphics & Text | Print | Product List | Glossary Off
Versions: 1 2 3 4 5 6 7 8 9 10 11 12 13 14 15 16 17 18 19 20 21 22 23 24 25 26 27 28 29 30 31 32 33 34 35 36 37 38 39 40 41 42 43 44 45 46 47 48 49 50

484
NZUS93 KARX 221859
HRRWXR

CURRENT HOURLY OBSERVATIONS ACROSS
MUCH OF THE UPPER MISSISSIPPI VALLEY
NATIONAL WEATHER SERVICE LA CROSSE WI
200 PM CDT SAT APR 22 2017


...SOUTHEAST MINNESOTA...


CITY           SKY/WX    TMP DP  RH WIND       PRES   REMARKS
ROCHESTER      SUNNY     62  30  29 CALM      30.22F
ROCHESTER/MAYO FAIR      63  29  28 NW6       30.22F
WINONA         SUNNY     61  21  21 NE3       30.22F
AUSTIN         SUNNY     63  32  31 CALM      30.22F
ALBERT LEA     SUNNY     63  27  25 N3        30.22F
DODGE CENTER   SUNNY     63  34  34 NW9       30.22F
PRESTON        SUNNY     60  29  30 N3        30.22F
OWATONNA       SUNNY     63  30  29 NW5       30.21F
FARIBAULT      MOSUNNY   64  36  34 SW7       30.22F
$$

...ELSEWHERE IN MINNESOTA...


CITY           SKY/WX    TMP DP  RH WIND       PRES   REMARKS
MINNEAPOLIS    SUNNY     68  34  28 NW10G18   30.20F
INTNL FALLS    CLOUDY    53  37  54 NW16G30   30.10R
DULUTH         MOSUNNY   65  38  36 W16G25    30.10F
RED WING       SUNNY     66  25  20 CALM      30.20F
REDWOOD FALLS  SUNNY     66  34  30 W9G22     30.21F
MANKATO        SUNNY     64  34  32 VRB5      30.22F
WORTHINGTON    SUNNY     62  36  37 SW8       30.24F
FAIRMONT       SUNNY     64  35  34 NW9       30.23F
$$

...SOUTHWEST WISCONSIN...


CITY           SKY/WX    TMP DP  RH WIND       PRES   REMARKS
LA CROSSE      SUNNY     65  23  20 VRB5      30.20F
PRAIRIE DU CHI SUNNY     62  25  24 W10       30.21F
BOSCOBEL       SUNNY     64  23  21 CALM      30.20F
LONE ROCK      NOT AVBL
PLATTEVILLE    SUNNY     59  31  35 CALM      30.22S
FORT MC COY    SUNNY     62  28  27 W7        30.22F
MAUSTON-NEW LI CLEAR     59  26  28 CALM      30.20F
VIROQUA        FAIR      60  27  28 N7        30.22S
WIS DELLS      SUNNY     60  19  20 CALM      30.21F
$$

...ELSEWHERE IN WISCONSIN...


CITY           SKY/WX    TMP DP  RH WIND       PRES   REMARKS
MILWAUKEE      MOSUNNY   54  28  36 NE9       30.21F
MADISON        MOSUNNY   60  28  29 N7        30.20F
GREEN BAY      SUNNY     61  33  35 CALM      30.19F
EAU CLAIRE     SUNNY     64  26  23 W10       30.19F
BLACK RVR FLS  FAIR      64  22  20 NW7       30.21S
MEDFORD        SUNNY     59  31  34 W5        30.19F
WAUSAU         SUNNY     61  28  28 VRB7      30.17F
WIS RAPIDS     SUNNY     64  21  19 NW6       30.20F
MARSHFIELD     SUNNY     61  29  29 W6        30.19F
RICE LAKE      CLOUDY    64  29  27 W10       30.20F
$$

...NORTHEAST IOWA...


CITY           SKY/WX    TMP DP  RH WIND       PRES   REMARKS
WATERLOO       SUNNY     63  29  27 VRB5      30.21F
DUBUQUE        SUNNY     60  30  32 VRB6      30.21F
DECORAH        SUNNY     61  28  29 N8        30.20F
MASON CITY     SUNNY     64  29  26 NE8       30.23F
CHARLES CITY   SUNNY     63  27  25 N9        30.22F
OELWEIN        SUNNY     61  28  29 VRB5G14   30.22F
$$

...ELSEWHERE IN IOWA...


CITY           SKY/WX    TMP DP  RH WIND       PRES   REMARKS
DES MOINES     PTSUNNY   65  28  24 NE10G17   30.21F
IOWA CITY      SUNNY     64  33  31 N16G29    30.21F
FORT DODGE     SUNNY     64  34  32 NW9       30.23F
MARSHALLTOWN   SUNNY     63  28  26 NE12      30.21F
CEDAR RAPIDS   SUNNY     62  29  28 NE8G18    30.20F
$$

...NORTHERN ILLINOIS...


CITY           SKY/WX    TMP DP  RH WIND       PRES   REMARKS
CHICAGO-OHARE  CLOUDY    57  26  30 NE13      30.19F
CHICAGO-MIDWAY PTSUNNY   55  29  36 NE15      30.18F
MOLINE         SUNNY     62  34  35 E10       30.19F
ROCKFORD       MOSUNNY   62  30  29 NE8G18    30.20F
PEORIA         SUNNY     60  37  42 E15G22    30.15F
$$

NOTE: "FAIR" INDICATES FEW OR NO CLOUDS BELOW 12,000 FEET WITH NO
SIGNIFICANT WEATHER AND/OR OBSTRUCTIONS TO VISIBILITY. WIND
SPEEDS ARE IN MILES-PER-HOUR.




USA.gov is the U.S. government's official web portal to all federal, state and local government web resources and services.